Harare Kutsaga, Zimbabwe

7:15 PM CAT on March 23, 2017 (GMT +0200)
Harare International

Weather History for FVHA - July, 2013

Change the Weather History Date:

Wednesday, July 10, 2013

  Actual Average Record
Temperature  
Mean Temperature 50 °F -  
Max Temperature 63 °F 72 °F 80 °F (2008)
Min Temperature 36 °F 43 °F 36 °F (2013)
Degree Days  
Heating Degree Days 16    
Moisture  
Dew Point 38 °F    
Average Humidity 60    
Maximum Humidity 100    
Minimum Humidity 24    
Precipitation  
Precipitation 0.00 in 0.00 in - ()
Sea Level Pressure  
Sea Level Pressure 30.35 in    
Wind  
Wind Speed 6 mph ()    
Max Wind Speed 14 mph    
Max Gust Speed -    
Visibility 9.7 miles    
Events      
Averages and records for this station are not official NWS values.
T = Trace of Precipitation, MM = Missing Value Source: Averaged Metar Reports

Daily Weather History Graph

Daily Weather History Graph

Search for Another Location

Airport or City:

Trip Planner

Search our weather history database for the weather conditions in past years. The results will help you decide how hot, cold, wet, or windy it might be!

Date:

Astronomy

Jul. 10, 2013 Rise Set
Actual Time 6:27 AM CAT 5:34 PM CAT
Civil Twilight 6:03 AM CAT 5:57 PM CAT
Nautical Twilight 5:36 AM CAT 6:24 PM CAT
Astronomical Twilight 5:10 AM CAT 6:51 PM CAT
Moon 7:41 AM CAT (7/10) 7:30 PM CAT (7/10)
Length of Visible Light 11h 54m
Length of Day
11h 07m
Waxing Crescent, 4% of the Moon is Illuminated
Jul 10
Waxing Crescent
Jul 16
First Quarter
Jul 22
Full
Jul 29
Last Quarter
Aug 6
New

Hourly Weather History & Observations

Time (CAT) Temp. Windchill Dew Point Humidity Pressure Visibility Wind Dir Wind Speed Gust Speed Precip Events Conditions
12:00 AM 46.4 °F 44.3 °F 39.2 °F 76% 30.36 in - SE 4.6 mph - N/A   Clear
2:00 AM 44.6 °F - 41.0 °F 87% 30.33 in - East 2.3 mph - N/A   Clear
5:00 AM 37.4 °F - 37.4 °F 100% 30.33 in - Calm Calm - N/A   Clear
6:00 AM 39.2 °F - 37.4 °F 93% 30.33 in - Calm Calm - N/A   Clear
7:00 AM 37.4 °F - 37.4 °F 100% 30.33 in - Calm Calm - N/A   Clear
8:00 AM 48 °F - 43 °F 77%  in 12 mi SSE 3.5 mph - -   Haze
8:00 AM 48.2 °F - 42.8 °F 82% 30.36 in - SSE 3.5 mph - N/A   Clear
9:00 AM 55.4 °F - 42.8 °F 63% 30.39 in 6.2 mi SE 10.4 mph - N/A   Scattered Clouds
10:00 AM 57.2 °F - 39.2 °F 51% 30.39 in 6.2 mi SE 13.8 mph - N/A   Partly Cloudy
11:00 AM 59.0 °F - 35.6 °F 42% 30.39 in 6.2 mi SE 13.8 mph - N/A   Partly Cloudy
12:00 PM 62.6 °F - 35.6 °F 37% 30.36 in 6.2 mi SSE 12.7 mph - N/A   Partly Cloudy
1:00 PM 62.6 °F - 35.6 °F 37% 30.33 in 6.2 mi SE 12.7 mph - N/A   Partly Cloudy
2:00 PM 63 °F - 35 °F 24%  in 19 mi SE 10.4 mph - -   Scattered Clouds
2:00 PM 64.4 °F - 35.6 °F 34% 30.33 in 6.2 mi SE 10.4 mph - N/A   Partly Cloudy
3:00 PM 62.6 °F - 37.4 °F 39% 30.30 in - SSE 11.5 mph - N/A   Clear
4:00 PM 62.6 °F - 37.4 °F 39% 30.30 in - SE 10.4 mph - N/A   Clear
5:00 PM 59.0 °F - 37.4 °F 45% 30.33 in - SE 9.2 mph - N/A   Clear
6:00 PM 55.4 °F - 37.4 °F 51% 30.33 in - SSE 5.8 mph - N/A   Clear
7:00 PM 53.6 °F - 37.4 °F 54% 30.33 in - SE 6.9 mph - N/A   Clear
8:00 PM 52 °F - 38 °F 48%  in 19 mi SE 10.4 mph - -   Scattered Clouds
8:00 PM 51.8 °F - 37.4 °F 58% 30.36 in - SE 10.4 mph - N/A   Clear
9:00 PM 50.0 °F - 39.2 °F 66% 30.36 in - SE 6.9 mph - N/A   Clear
10:00 PM 51.8 °F - 41.0 °F 67% 30.39 in - SSE 6.9 mph - N/A   Clear
11:00 PM 51.8 °F - 42.8 °F 71% 30.36 in - SSE 8.1 mph - N/A   Clear